Flag for Cayman Islands Weather past 2 weeks in George Town, Cayman Islands

Now
81 °F

Passing clouds.


Feels Like: 87 °F
Forecast: 81 / 85 °F
Wind: 5 mph from East

Location: Owen Roberts Airportgrand Cayman

Current Time: May 6, 2015 at 9:36:43 PM

Latest Report: May 6, 2015 at 9:00 PM


Visibility: N/A

Pressure: 29.98 "Hg

Humidity: 89%

Dew point: 77 °F

Location of George TownLocation

Historic Weather in George Town — Graph

°F

George Town temperature yesterday

Maximum temperature yesterday: 88 °F (at 2:00 PM)
Minimum temperature yesterday: 73 °F (at 5:00 PM)
Average temperature yesterday: 80 °F

Past Weeks' High & Low Weather Summary

 TemperatureHumidityPressure
High88 °F (Apr 22, 11:00 AM)100% (Apr 25, 5:55 AM)30.07 "Hg (Apr 25, 5:55 AM)
Low73 °F (May 3, 6:50 PM)70% (Apr 27, 2:00 PM)29.74 "Hg (Apr 28, 5:00 PM)
Average83 °F85%29.90 "Hg
* Reported Apr 21 8:00 PM — May 6 8:00 PM, George Town, Weather by CustomWeather, © 2015

Note: Actual official high and low records may vary slightly from our data, if they occured in-between our weather recording intervals... More about our weather records

Advertising

George Town weather history for previous 24 hours

 ConditionsComfort  
Time TempWeatherWind HumidityBarometerVisibility
8:00 PM
Wed, May 6
81 °FPassing clouds.5 mph89%29.95 "HgN/A
7:00 PM82 °FPassing clouds.6 mph84%29.92 "HgN/A
6:00 PM84 °FScattered clouds.9 mph79%29.92 "HgN/A
5:00 PM84 °FScattered clouds.9 mph74%29.92 "HgN/A
4:00 PM84 °FScattered clouds.9 mph79%29.92 "HgN/A
3:00 PM84 °FScattered clouds.10 mph79%29.92 "HgN/A
2:00 PM84 °FScattered clouds.10 mph79%29.95 "HgN/A
1:00 PM81 °FPartly sunny.8 mph94%29.98 "HgN/A
12:00 PM75 °FPartly sunny.2 mph100%30.01 "HgN/A
11:00 AM82 °FSprinkles. Scattered clouds.14 mph79%30.01 "Hg6 mi
10:00 AM81 °FPartly sunny.6 mph84%30.01 "HgN/A
9:00 AM81 °FScattered clouds.8 mph74%30.01 "HgN/A
8:00 AM81 °FScattered clouds.16 mph74%30.01 "HgN/A
7:00 AM77 °FScattered clouds.9 mph94%29.98 "HgN/A
6:00 AM79 °FPartly sunny.9 mph89%29.95 "HgN/A
10:00 PM
Tue, May 5
77 °FThundershowers. Passing clouds.10 mph89%30.01 "HgN/A
9:00 PM75 °FThundershowers. Passing clouds.8 mph83%30.01 "HgN/A
Weather by CustomWeather, © 2015

See weather overviewHow to use our weather pages